Wind_Speed
40 41 41 41 41 41 41 41 41 41 41 41 41 41 41 43 45 47 50 54 56 58 59 58 55 52 51 54 54 49 46 47 48 46 48 52 56 59 61 63 64 64
42 43 44 44 44 44 43 42 41 41 41 42 43 44 45 46 48 51 54 57 59 60 59 58 55 51 52 54 55 50 47 48 49 47 48 53 56 59 62 65 67 67
45 46 46 47 47 47 46 45 44 43 43 45 46 47 48 50 51 54 57 58 59 60 59 57 53 51 52 55 55 50 46 48 50 49 50 54 57 61 63 66 69 72
47 48 49 49 50 49 49 48 47 46 46 47 48 49 50 51 53 55 56 58 59 59 58 56 54 52 53 55 53 49 47 49 50 50 52 56 60 62 65 68 72 75
47 48 49 50 51 51 50 50 49 48 48 48 50 51 51 53 54 56 57 58 59 58 57 56 55 54 55 55 52 49 49 50 51 53 56 59 62 64 66 69 73 76
47 48 48 49 51 52 51 51 50 50 51 52 52 53 53 55 57 58 59 58 57 56 56 56 55 55 56 56 53 51 51 52 54 56 59 62 66 68 69 72 75 77
48 48 48 49 50 51 52 53 53 54 55 56 55 54 54 57 59 60 59 56 54 54 56 56 56 57 57 57 55 53 53 55 57 59 62 66 69 71 72 74 77 79
48 49 50 50 51 52 54 55 56 57 59 59 58 55 56 58 59 57 56 54 53 55 58 59 58 58 59 59 56 55 56 58 60 62 65 69 72 74 75 76 78 81
49 51 52 53 53 54 55 57 59 60 61 61 58 56 56 56 54 54 55 55 56 58 61 63 61 59 59 58 56 56 58 61 63 66 68 71 74 76 77 78 81 83
51 52 55 56 56 56 58 59 62 63 63 61 57 55 55 52 50 54 57 57 59 61 63 64 63 61 59 57 56 58 61 63 66 68 70 74 76 78 79 80 82 84
52 54 58 59 58 57 59 62 65 64 60 57 54 54 53 49 51 59 61 60 61 62 64 66 64 61 59 57 58 61 63 65 68 71 74 78 79 79 80 82 83 85
54 56 60 60 58 58 61 65 66 62 58 53 51 52 52 50 56 64 65 63 62 61 64 66 63 60 59 60 60 62 64 67 71 75 79 81 80 79 81 82 84 86
57 58 57 55 55 58 62 63 59 57 57 55 51 52 54 56 60 65 66 64 61 59 62 63 60 58 59 59 61 63 67 72 77 80 81 80 79 80 82 83 85 88
59 57 52 51 56 61 60 56 53 55 58 58 57 57 58 60 61 62 63 62 57 56 57 57 56 57 59 62 65 70 74 78 79 79 79 79 80 82 84 86 88 91
56 52 50 54 59 61 57 54 56 60 61 61 60 59 59 61 62 62 62 59 56 54 55 56 58 61 66 69 72 75 76 77 77 78 80 83 85 85 86 89 92 94
51 48 52 56 57 58 58 59 62 65 66 64 61 60 61 62 64 66 64 61 60 57 56 60 64 67 70 72 74 75 76 78 81 83 85 86 87 87 89 92 94 95
49 49 52 53 52 55 57 57 59 62 64 64 62 61 62 63 65 67 65 64 63 59 59 63 66 68 71 73 75 77 79 81 84 85 86 87 88 90 92 93 94 96
50 49 49 48 48 49 50 50 53 57 61 63 62 61 61 62 64 64 63 63 61 59 62 65 68 70 73 75 78 80 81 81 83 85 88 90 92 92 93 94 95 97
50 48 45 42 41 44 49 52 54 57 60 62 61 61 61 62 63 62 61 61 62 62 65 68 71 74 76 79 82 82 80 82 87 91 93 94 93 93 93 95 97 100
50 47 42 38 38 44 51 54 56 57 58 58 59 60 60 61 62 63 63 66 67 67 67 69 73 77 80 83 83 81 82 87 92 96 96 95 94 94 94 96 99 103
51 46 40 35 38 46 50 52 56 58 57 57 58 59 58 59 62 66 69 71 70 69 69 72 76 81 84 85 84 84 87 91 94 96 97 96 96 95 96 99 102 105
53 49 43 38 40 47 51 52 56 59 58 56 57 58 58 60 63 66 71 73 72 71 74 79 83 86 88 88 87 88 90 92 94 95 95 95 95 96 99 101 104 107
55 52 48 43 42 46 51 51 52 54 53 53 55 58 61 63 64 67 71 74 76 78 82 85 88 89 90 90 89 89 90 92 93 93 93 94 95 98 101 103 106 109
58 52 48 44 41 41 45 46 46 47 49 50 53 59 62 63 64 67 71 75 78 82 85 88 89 89 89 90 90 89 89 89 90 91 93 94 96 99 102 105 108 109
58 51 46 42 38 36 37 38 39 43 48 51 54 59 61 62 63 67 71 76 80 83 84 85 85 85 85 85 84 83 84 86 89 92 94 96 99 102 104 107 109 108
57 51 45 42 38 36 35 35 36 40 46 52 58 62 63 65 69 72 75 78 79 79 80 80 79 78 78 78 79 81 85 88 91 93 96 100 103 105 107 110 109 108
Wind_Direction
318 319 319 319 319 320 322 322 322 320 318 316 315 313 311 309 309 308 309 311 313 316 318 319 318 317 318 320 318 314 314 320 323 321 324 328 331 334 336 337 338 338
317 318 318 318 318 318 320 321 321 320 318 317 316 313 310 309 308 308 310 311 313 315 318 319 317 315 317 317 316 313 310 315 320 319 321 325 328 331 333 334 335 335
316 317 317 317 317 317 319 319 319 319 318 317 316 313 311 309 308 309 311 312 314 316 318 319 316 313 314 316 314 310 308 312 317 317 318 322 325 328 330 332 332 331
316 317 317 317 317 317 318 318 318 318 317 316 315 313 310 309 309 310 313 313 315 317 318 318 315 310 312 314 311 307 306 310 315 316 317 320 322 326 329 330 329 329
315 316 316 316 316 317 318 318 318 318 317 316 314 313 312 311 312 312 314 314 315 316 318 318 314 309 311 314 309 305 306 310 314 316 317 319 322 325 327 328 327 328
313 314 316 316 316 316 318 318 318 318 317 315 314 314 313 313 313 314 314 315 316 317 318 318 314 309 310 313 308 304 306 309 312 315 317 319 321 324 325 325 325 326
312 314 315 316 315 316 317 317 317 316 315 315 314 313 313 314 314 314 316 317 318 320 321 318 313 308 310 311 307 303 305 307 310 313 315 317 318 321 322 323 324 325
312 313 314 314 314 315 316 316 315 315 314 314 313 311 312 315 316 316 318 319 320 322 323 320 312 307 309 310 306 303 304 305 308 311 313 314 316 318 320 321 322 323
311 312 312 312 313 314 314 314 313 313 313 313 312 311 314 317 319 319 320 320 319 319 321 321 314 307 307 308 305 303 303 304 306 309 311 313 315 317 318 320 321 321
310 310 311 312 312 313 314 313 312 311 312 313 311 310 313 316 319 321 320 318 317 317 319 319 314 307 306 306 304 302 302 304 306 308 309 312 314 315 317 318 319 319
309 310 311 310 310 312 313 312 311 311 313 313 311 309 311 312 317 320 319 317 317 317 317 318 313 306 303 302 301 302 303 304 306 307 309 311 313 314 315 317 318 318
309 310 311 309 308 312 314 311 310 311 312 313 311 309 308 308 312 316 317 317 317 316 315 314 310 304 300 299 299 301 303 304 305 307 309 310 311 313 314 316 317 319
308 310 311 308 308 310 308 307 305 304 306 308 306 305 305 306 310 314 315 315 315 313 312 310 305 301 299 298 299 301 303 305 307 308 309 309 310 311 314 316 317 319
307 310 307 305 308 307 303 303 304 301 303 305 303 301 302 307 311 313 313 313 312 310 310 307 303 302 302 302 302 303 305 307 308 308 307 308 309 311 313 315 316 318
309 311 304 302 309 309 304 304 305 304 306 308 306 302 301 305 309 310 310 311 310 307 306 304 302 303 304 304 304 305 306 307 307 306 306 307 309 310 312 314 316 317
308 306 299 300 308 310 307 305 304 305 308 310 309 306 303 304 306 306 307 309 308 304 302 301 302 304 305 305 305 305 305 305 305 305 306 306 308 309 312 314 315 316
302 300 298 303 310 311 308 305 303 304 306 308 308 306 304 304 305 305 306 307 305 300 298 299 302 305 305 304 304 304 304 304 304 305 306 307 308 310 312 314 314 315
302 302 303 311 317 313 305 300 299 301 302 303 304 304 304 305 306 305 304 304 300 294 294 297 301 303 303 302 301 301 302 303 305 306 308 309 310 312 313 313 315 315
303 305 310 318 318 306 298 294 293 295 296 297 299 302 302 304 305 303 301 299 295 291 292 295 298 301 301 300 299 300 301 303 305 307 309 310 311 311 312 313 314 315
303 307 313 316 303 289 286 286 285 289 292 289 291 297 299 301 302 300 297 295 293 291 290 292 295 299 299 298 298 299 300 303 305 306 308 309 310 311 312 313 314 315
302 306 307 299 283 275 274 274 276 282 285 284 288 295 298 299 298 295 292 290 289 290 290 291 293 296 298 298 298 297 299 301 303 305 306 308 309 311 311 312 314 315
301 302 299 289 277 270 268 266 269 275 280 285 291 294 294 294 291 289 288 287 286 287 289 291 293 294 296 296 296 296 298 301 303 304 305 307 308 310 311 312 314 315
298 299 297 291 280 271 268 267 267 272 280 287 288 287 286 288 287 286 286 285 284 286 288 290 292 293 294 294 295 296 299 301 302 303 303 304 306 308 310 312 313 313
296 296 294 289 282 274 270 269 270 276 282 282 280 279 280 283 284 284 284 283 284 286 288 289 290 291 293 295 296 299 300 300 300 301 301 303 306 308 310 310 311 311
294 294 290 285 280 271 268 272 279 282 282 279 276 274 274 276 277 278 279 281 284 285 286 288 290 293 294 296 297 299 299 299 300 301 303 306 308 308 309 309 309 309
292 291 288 282 274 265 263 269 272 269 269 271 271 270 270 270 270 273 276 280 283 285 287 291 293 294 294 294 295 296 297 298 300 302 304 306 307 307 308 308 308 308
Height
10932 10931 10930 10929 10928 10927 10925 10923 10920 10918 10915 10913 10912 10910 10908 10906 10904 10902 10900 10898 10896 10894 10892 10889 10886 10883 10880 10877 10874 10871 10869 10866 10863 10860 10856 10852 10848 10845 10842 10840 10837 10835
10928 10926 10925 10924 10923 10922 10921 10920 10918 10915 10913 10910 10908 10906 10904 10902 10900 10899 10896 10894 10892 10890 10887 10884 10881 10878 10875 10872 10868 10865 10863 10861 10858 10855 10852 10847 10843 10840 10837 10835 10833 10831
10924 10922 10920 10918 10917 10916 10916 10915 10914 10912 10910 10907 10905 10903 10900 10899 10897 10895 10892 10889 10886 10883 10881 10878 10875 10872 10869 10866 10862 10859 10857 10855 10853 10850 10847 10843 10839 10836 10832 10829 10827 10826
10919 10917 10914 10913 10911 10910 10910 10909 10908 10907 10905 10902 10900 10898 10896 10894 10892 10890 10886 10883 10880 10876 10874 10871 10868 10866 10863 10859 10856 10854 10852 10850 10847 10845 10842 10838 10834 10830 10827 10823 10821 10819
10916 10913 10911 10908 10906 10905 10904 10903 10902 10900 10899 10896 10894 10892 10889 10887 10885 10882 10879 10876 10872 10869 10867 10864 10861 10858 10856 10853 10850 10847 10845 10843 10841 10838 10836 10832 10828 10824 10821 10817 10815 10813
10913 10911 10909 10905 10902 10900 10899 10897 10895 10894 10891 10889 10887 10885 10881 10878 10875 10873 10871 10868 10865 10862 10859 10856 10853 10850 10848 10846 10843 10840 10838 10836 10834 10831 10829 10825 10821 10818 10814 10811 10808 10807
10909 10907 10905 10902 10898 10896 10894 10891 10889 10887 10884 10882 10880 10878 10874 10871 10867 10865 10863 10861 10859 10855 10852 10850 10847 10844 10842 10839 10836 10833 10831 10829 10827 10825 10822 10819 10815 10812 10809 10805 10802 10800
10905 10902 10900 10897 10894 10892 10889 10886 10882 10879 10877 10875 10873 10870 10867 10864 10861 10858 10856 10854 10852 10850 10847 10844 10841 10838 10835 10833 10829 10827 10825 10822 10820 10819 10817 10814 10810 10807 10803 10799 10796 10794
10901 10897 10894 10891 10888 10886 10883 10880 10876 10873 10870 10868 10865 10864 10861 10859 10855 10852 10849 10848 10846 10844 10841 10838 10835 10832 10830 10826 10824 10821 10819 10817 10815 10813 10811 10808 10804 10801 10797 10793 10790 10787
10896 10893 10889 10886 10883 10880 10877 10873 10869 10867 10864 10862 10860 10858 10856 10854 10850 10847 10844 10842 10840 10838 10835 10833 10830 10827 10824 10821 10818 10815 10813 10811 10809 10807 10805 10802 10798 10794 10790 10786 10783 10780
10892 10888 10884 10880 10877 10873 10870 10866 10862 10860 10859 10857 10856 10853 10851 10848 10844 10841 10839 10837 10834 10832 10830 10827 10824 10821 10819 10816 10812 10810 10808 10806 10803 10801 10799 10796 10792 10788 10783 10779 10775 10771
10888 10884 10880 10874 10870 10866 10863 10858 10854 10852 10852 10852 10850 10848 10845 10842 10838 10835 10833 10831 10829 10826 10824 10822 10819 10816 10813 10810 10807 10805 10802 10800 10797 10795 10792 10788 10784 10780 10775 10771 10767 10764
10883 10881 10878 10871 10865 10861 10858 10854 10849 10846 10845 10845 10844 10841 10839 10836 10832 10829 10827 10825 10823 10821 10819 10816 10813 10810 10807 10804 10802 10799 10796 10794 10791 10788 10784 10780 10776 10772 10768 10764 10760 10756
10878 10879 10878 10871 10864 10858 10854 10852 10848 10843 10841 10839 10837 10834 10832 10829 10826 10823 10820 10818 10817 10814 10812 10810 10807 10804 10802 10799 10797 10793 10790 10787 10783 10780 10775 10771 10768 10764 10760 10756 10752 10749
10875 10878 10875 10868 10862 10855 10851 10849 10844 10838 10836 10834 10832 10829 10828 10825 10821 10817 10815 10813 10811 10808 10806 10804 10801 10799 10796 10793 10790 10786 10783 10779 10775 10771 10767 10763 10760 10756 10752 10748 10744 10741
10876 10877 10871 10865 10861 10854 10848 10845 10838 10832 10830 10828 10826 10825 10823 10821 10816 10812 10810 10808 10805 10803 10800 10797 10795 10793 10790 10786 10782 10779 10775 10771 10766 10762 10759 10755 10752 10748 10745 10741 10737 10733
10872 10871 10865 10862 10860 10853 10845 10840 10835 10830 10825 10821 10820 10820 10818 10815 10812 10807 10804 10802 10800 10797 10793 10790 10789 10786 10783 10779 10775 10772 10768 10763 10758 10754 10751 10748 10744 10741 10737 10733 10730 10725
10863 10863 10860 10859 10857 10851 10844 10839 10835 10831 10823 10815 10813 10814 10813 10810 10806 10802 10799 10796 10794 10790 10787 10784 10783 10780 10777 10772 10767 10764 10760 10755 10750 10747 10743 10740 10736 10733 10729 10725 10721 10717
10855 10855 10855 10855 10854 10849 10844 10838 10833 10830 10825 10815 10809 10808 10808 10805 10800 10796 10793 10790 10787 10784 10781 10778 10776 10774 10770 10764 10759 10756 10753 10749 10743 10739 10736 10732 10728 10725 10721 10717 10713 10709
10847 10849 10851 10853 10852 10847 10841 10835 10830 10827 10824 10816 10809 10807 10805 10801 10796 10791 10788 10784 10780 10777 10774 10770 10768 10767 10763 10757 10752 10749 10746 10741 10736 10731 10728 10725 10721 10718 10714 10709 10706 10702
10840 10843 10846 10847 10844 10839 10834 10829 10824 10821 10818 10812 10807 10805 10802 10797 10792 10787 10782 10778 10774 10771 10767 10763 10761 10760 10756 10751 10746 10743 10738 10734 10729 10725 10721 10717 10713 10710 10706 10702 10698 10693
10832 10834 10836 10836 10832 10826 10822 10821 10818 10816 10813 10808 10804 10802 10798 10792 10787 10783 10777 10773 10769 10765 10761 10757 10754 10752 10748 10743 10739 10736 10732 10727 10723 10718 10714 10710 10706 10703 10698 10694 10689 10685
10824 10825 10824 10824 10822 10816 10813 10813 10813 10811 10808 10805 10801 10797 10792 10786 10782 10777 10772 10767 10763 10759 10755 10751 10747 10743 10739 10734 10731 10728 10725 10720 10716 10712 10707 10704 10701 10696 10691 10686 10682 10677
10816 10817 10815 10813 10812 10810 10808 10808 10808 10806 10803 10799 10795 10789 10784 10779 10775 10770 10765 10760 10756 10752 10748 10743 10738 10733 10729 10724 10721 10719 10716 10711 10707 10704 10701 10697 10694 10689 10684 10679 10675 10670
10808 10808 10807 10805 10804 10804 10803 10804 10805 10803 10796 10790 10785 10780 10776 10771 10766 10761 10756 10752 10748 10744 10739 10734 10729 10724 10719 10715 10712 10709 10705 10702 10699 10695 10692 10689 10684 10680 10675 10670 10666 10662
10799 10798 10799 10798 10797 10796 10797 10797 10797 10792 10785 10779 10774 10769 10765 10761 10756 10751 10748 10744 10741 10735 10730 10725 10720 10715 10710 10707 10704 10701 10697 10693 10690 10686 10682 10679 10674 10670 10666 10661 10657 10653